Regional Weather Roundup
Issued by NWS

Home | Current Version | Previous Version | Graphics & Text | Print | Product List | Glossary On
Versions: 1 2 3 4 5 6 7 8 9 10 11 12 13 14 15 16 17 18 19 20 21 22 23 24 25 26 27 28 29 30 31 32 33 34 35 36 37 38 39 40 41 42 43 44 45 46 47 48 49
000
ASUS45 KSLC 272110
RWRUT

UTAH REGIONAL WEATHER ROUNDUP
NATIONAL WEATHER SERVICE SALT LAKE CITY UT
300 PM MDT MON JUL 27 2015

UTZ001>011-023>025-272200-

NORTHERN UTAH

CITY           SKY/WX    TMP DP  RH WIND       PRES   REMARKS
BRIGHAM CITY   MOSUNNY   67  42  39 CALM      30.06S
HILL AFB       MOSUNNY   69  44  39 W7        30.07R
LOGAN            N/A    N/A N/A N/A MISG      30.07
OGDEN          PTSUNNY   70  44  39 VRB5      30.05S
PROVO AIRPORT  MOSUNNY   77  45  31 NW17G29   30.02R
SALT LAKE CITY MOSUNNY   73  44  35 N9G21     30.04R
VERNAL         SUNNY     87  23   9 SW18G29   29.88R
WENDOVER       MOSUNNY   79  32  18 NW12G30   30.03R
HEBER CITY     PTSUNNY   77  36  22 SW18      30.03R
WEST JORDAN    SUNNY     73  43  33 N15G25    30.05F

$$

UTZ012>022-026-027-272200-

SOUTHERN/CENTRAL UTAH

CITY           SKY/WX    TMP DP  RH WIND       PRES   REMARKS
BLANDING       SUNNY     88  32  13 S10G20    30.12F
BRYCE CANYON   SUNNY     78  26  14 SW13      30.20F
CEDAR CITY     SUNNY     86  18   8 SW8G28    30.04F
DELTA          SUNNY     82  31  15 N13G25    29.99S
HANKSVILLE     SUNNY     95  27   8 S20G28    29.89F
MILFORD        SUNNY     90  29  11 SW20G29   29.96F
MOAB/CYNLANDS  SUNNY     94  30  10 SW17G29   29.87F
PRICE          SUNNY     88  21   8 SW28G33   29.98R
ST GEORGE      CLEAR     93  34  12 SW9G21    29.89S
KANAB          SUNNY     90  30  12 SW18G26   30.06F

$$

REGIONAL REPORTS     COLORADO/ARIZONA

CITY           SKY/WX    TMP DP  RH WIND       PRES   REMARKS
CRAIG, CO      MOSUNNY   89  41  18 SW26G37   29.96S
GRAND JUNCTION MOSUNNY   94  38  14 SW20G28   29.89F
RIFLE          PTSUNNY   92  37  14 SW20G36   29.93F
MONTROSE       MOSUNNY   91  41  17 W14G29    30.02S
CORTEZ         SUNNY     90  37  15 S13       30.07F
PAGE, AZ       SUNNY     95  22   7 SW8       29.93F
GRAND CANYON   SUNNY     83  27  13 SW15G26   30.17F
KINGMAN        SUNNY     95  18   6 S18G25    29.95F
FLAGSTAFF      MOSUNNY   78  42  27 SW13G24   30.22F

$$

REGIONAL REPORTS    NEVADA/IDAHO/WYOMING

CITY           SKY/WX    TMP DP  RH WIND       PRES   REMARKS
LAS VEGAS, NV  SUNNY     98  28   8 S12       29.79F HX  92
ELY            SUNNY     74  26  16 VRB3      30.13S
ELKO           MOSUNNY   72  35  25 NW16G23   30.12R
POCATELLO, ID  MOSUNNY   65  45  48 SW17G30   30.04F
BURLEY         SUNNY     67  40  37 W23G33    30.04S
EVANSTON, WY   MOSUNNY   66  38  35 W16G30    30.12R
ROCK SPRINGS   PTSUNNY   76  36  23 W39G49    29.96R
KEMMERER       PTSUNNY   61  36  39 W26G37    30.11R

$$



USA.gov is the U.S. government's official web portal to all federal, state and local government web resources and services.